Home > Weather > Miramichi > Past weeks

Flag for Canada Past Weather in Miramichi, New Brunswick, Canada — Yesterday and Last 2 Weeks

Now
66 °F

Passing clouds.


Feels Like: 66 °F
Forecast: 62 / 80 °F
Wind: 5 mph from West

Location: Bathurst Airport

Current Time: Jul 24, 2016 at 2:08:22 AM

Latest Report: Jul 24, 2016 at 1:00 AM


Visibility: 15 mi

Pressure: 29.71 "Hg

Humidity: 83%

Dew Point: 61 °F

Location of MiramichiLocation

Past Weather in Miramichi — Graph

°F

Miramichi Temperature Yesterday

Maximum temperature yesterday: 84 °F (at 4:00 PM)
Minimum temperature yesterday: 64 °F (at 3:00 AM)
Average temperature yesterday: 72 °F

High & Low Weather Summary for the Past Weeks

 TemperatureHumidityPressure
High90 °F (Jul 14, 1:00 PM)100% (Jul 9, 2:00 AM)30.16 "Hg (Jul 9, 2:00 AM)
Low45 °F (Jul 9, 3:00 AM)26% (Jul 11, 3:00 PM)29.53 "Hg (Jul 22, 12:00 PM)
Average67 °F73%29.85 "Hg
* Reported Jul 9 1:00 AM — Jul 24 1:00 AM, Miramichi, Weather by CustomWeather, © 2016

Note: Actual official high and low records may vary slightly from our data, if they occured in-between our weather recording intervals... More about our weather records

Advertising

Miramichi Weather History for the Previous 24 Hours

Scroll right to see more
 ConditionsComfort  
Time TempWeatherWind HumidityBarometerVisibility
1:00 AM
Sun, Jul 24
66 °FPassing clouds.5 mph83%29.71 "Hg15 mi
12:00 AM68 °FPassing clouds.2 mph83%29.70 "Hg15 mi
11:00 PM
Sat, Jul 23
72 °FPassing clouds.3 mph78%29.69 "Hg15 mi
10:00 PM68 °FPartly sunny.5 mph83%29.68 "Hg15 mi
9:00 PM70 °FBroken clouds.5 mph78%29.66 "Hg15 mi
8:00 PM73 °FBroken clouds.8 mph74%29.65 "Hg15 mi
7:00 PM75 °FThunderstorms. Broken clouds.3 mph65%29.64 "Hg15 mi
6:00 PM75 °FBroken clouds.10 mph65%29.61 "Hg10 mi
5:00 PM84 °FBroken clouds.10 mph51%29.59 "Hg15 mi
4:00 PM84 °FPartly sunny.9 mph45%29.58 "Hg15 mi
3:00 PM82 °FPartly sunny.8 mph51%29.59 "Hg15 mi
2:00 PM81 °FBroken clouds.12 mph58%29.59 "Hg15 mi
1:00 PM79 °FBroken clouds.9 mph65%29.60 "Hg15 mi
12:00 PM77 °FPartly sunny.9 mph65%29.61 "Hg15 mi
11:00 AM75 °FPassing clouds.14 mph69%29.60 "Hg15 mi
10:00 AM73 °FScattered clouds.9 mph74%29.59 "Hg15 mi
9:00 AM72 °FBroken clouds.9 mph78%29.59 "Hg15 mi
8:00 AM70 °FBroken clouds.5 mph88%29.57 "Hg15 mi
7:00 AM68 °FBroken clouds.5 mph88%29.56 "Hg15 mi
6:00 AM64 °FPartly cloudy.3 mph100%29.55 "Hg12 mi
5:00 AM66 °FPartly cloudy.7 mph94%29.54 "Hg12 mi
4:00 AM66 °FPassing clouds.5 mph94%29.53 "Hg10 mi
3:00 AM64 °FPassing clouds.2 mph100%29.54 "Hg10 mi
2:00 AM66 °FPassing clouds.3 mph94%29.54 "Hg10 mi
Weather by CustomWeather, © 2016

See weather overviewHow to use our weather pages